Tracking 26321 objects as of 28-Nov-2022
HD Live streaming from Space Station
objects crossing your sky now

ATLAS 5 CENTAUR DEB

Track ATLAS 5 CENTAUR DEB now!


NORAD ID: 44682
Int'l Code: 2018-079AU
Perigee: 8,658.6 km
Apogee: 35,288.7 km
Inclination: 11.0 °
Period: 791.5 minutes
Semi major axis: 28344 km
RCS: Unknown
Launch date: October 17, 2018
Source: United States (US)
Launch site: AIR FORCE EASTERN TEST RANGE (AFETR)

Note: This is SATELLITE DEBRIS
aabbcc
Your satellite tracking list
Your tracking list is empty




NASA's NSSDC Master Catalog

Two Line Element Set (TLE):
1 44682U 18079AU  22329.40201175 -.00000052  00000-0  00000-0 0  9995
2 44682  10.9823 153.8476 4697545  87.7121 323.4996  1.81926420 23205
Source of the keplerian elements: AFSPC